Location: El Peñón
(10.3719°N, 67.3319°W)
Time: 04:37:13
(UTC+00:00)

Cosmos 1331 Rocket - Pass Details

Date: 13 June 2024
Orbit: 748 x 774 km, 74.0° (Epoch: 21 July)

Event Time Altitude Azimuth Distance (km) Brightness Sun altitude
Rises 23:01:04 0° 342° (NNW) 3,185 7.9 -3.0°
Reaches altitude 10° 23:03:26 10° 340° (NNW) 2,260 7.2 -3.5°
Maximum altitude 23:08:31 67° 258° (WSW) 806 4.4 -4.7°
Drops below altitude 10° 23:13:35 10° 176° (S) 2,259 6.2 -5.8°
Sets 23:15:57 0° 173° (S) 3,185 6.9 -6.3°
